Regional Weather Roundup
Issued by NWS Green Bay, WI

Home | Current Version | Previous Version | Graphics & Text | Print | Product List | Glossary Off
Versions: 1 2 3 4 5 6 7 8 9 10 11 12 13 14 15 16 17 18 19 20 21 22 23 24 25 26 27 28 29 30 31 32 33 34 35 36 37 38 39 40 41 42 43 44 45 46 47 48 49 50

000
ASUS43 KGRB 252100
RWRGRB

NORTH-CENTRAL AND NORTHEAST WISCONSIN REGIONAL WEATHER ROUNDUP
NATIONAL WEATHER SERVICE GREEN BAY WI
400 PM CDT THU AUG 25 2016

WIZ005-009-010>012-018-019-252200-
NORTH CENTRAL WISCONSIN

CITY           SKY/WX    TMP DP  RH WIND       PRES   REMARKS
IRONWOOD       PTSUNNY   73  54  51 W17G28    29.95R
MANITOWISH WTR NOT AVBL
ARBOR VITAE    NOT AVBL
EAGLE RIVER    NOT AVBL
LAND O LAKES   NOT AVBL
RHINELANDER    MOSUNNY   76  58  53 W14G23    29.98F
PHILLIPS       CLOUDY    72  54  53 W9G18     29.99S
ANTIGO         NOT AVBL
TOMAHAWK       NOT AVBL
MERRILL        NOT AVBL
$$

WIZ013-073-252200-
NORTHEAST WISCONSIN

CITY           SKY/WX    TMP DP  RH WIND       PRES   REMARKS
IRON MOUNTAIN  MOSUNNY   79  54  41 W8G21     29.94S
MARINETTE      SUNNY    N/A N/A N/A W9        29.95F
$$

WIZ017-030-035>037-045-252200-
CENTRAL WISCONSIN

CITY           SKY/WX    TMP DP  RH WIND       PRES   REMARKS
MEDFORD        NOT AVBL
WAUSAU         PTSUNNY   76  56  49 W13G24    29.99F
MOSINEE        MOSUNNY   75  59  57 SW15G21   30.02F
MARSHFIELD     MOSUNNY   77  60  55 W10       30.01F
WISC RAPIDS    CLOUDY    78  59  51 W13G22    30.03F
STEVENS POINT  NOT AVBL
WAUPACA        NOT AVBL
SHAWANO        NOT AVBL
CLINTONVILLE   SUNNY     79  55  44 W9        29.99F
WAUTOMA        CLOUDY    79  61  53 W10       30.02F
$$

WIZ038-039-048-051-252200-
FOX VALLEY

CITY           SKY/WX    TMP DP  RH WIND       PRES   REMARKS
NWS GREEN BAY  SUNNY     79  62  56 W10G21    29.99S
APPLETON       MOSUNNY   79  54  41 W12G17    30.00F
OSHKOSH        MOSUNNY   78  59  51 MISG      30.01F
FOND DU LAC    MOSUNNY   79  58  48 W12G21    30.02F
$$

WIZ022-050-052-252200-
EAST CENTRAL WISCONSIN

CITY           SKY/WX    TMP DP  RH WIND       PRES   REMARKS
EPHRAIM        NOT AVBL
WASHINGTON ISL NOT AVBL
STURGEON BAY   SUNNY     77  60  55 SW16      29.97F
MANITOWOC      NOT AVBL
SHEBOYGAN      SUNNY     80  58  46 W10       30.00F
$$

LMZ563-521-522-541>543-252200-
LAKESHORE

STATION/POSITION TIME  TEMP    WIND        PRES    VSBY  WAVE
                       AIR SEA DIR/SP/G                  HT/PER
                 (UTC) (F)     (DEG/KT/KT) (MB)    (MI)  (FT/S)
SHEBOYGAN LKSHOR 2000   77     270/ 10/ 13 1015.4F
KEWAUNEE LKSHORE 2000   77     260/  9/ 12 1015.0F
NORTHPORT PIER   2000   79     220/  3/  7 1013.9F
N MID LAKE BUOY  1950   71 70  220/ 10/ 12 1013.7S         1/ 5
S GREEN BAY BUOY 2000   75 73  240/ 12/ 12 1014.6F
SISTER BAY LKSHO 2007   80     240/ 12/ 14   N/A
CHAMBERS ISLAND  2000   77     180/  6/ 11 1013.9F
MENOMINEE LKSHOR 2000   79     230/  7/ 12 1013.5F
$$



USA.gov is the U.S. government's official web portal to all federal, state and local government web resources and services.